Starlink 30436

operational
NORAD ID: 57880 Int'l Des: 2023-144 Owner: SPXS Country: US Constellation: starlink
LEOCIRCULAR

Über Starlink 30436

Beschreibung wird geladen...

Live-Position

3D-Globus wird geladen...

Nächste Überflüge

Höhenverlauf

Altitude vs Time

uPlot chart will show altitude changes over time

Zweizeiliger Elementsatz

1 57880U 23144S 25352.33065432 .00000699 00000-0 66784-4 0 9994
2 57880 43.0052 9.4298 0001495 264.6483 95.4189 15.02541298125379
Epoch: 18. Dez. 2025 • Age: 14 hours

Aktueller Status

Höhe 570.7 km
Geschwindigkeit 7.58 km/s
Subsatellitenpunkt -41.31°S, 159.31°W
Startdatum 16. Sept. 2023
Alter 2.2 years
Typ internet

Technische Details

Klassifizierung Payload
Masse 730.00 kg
Trockenmasse 700.00 kg
Gesamtmasse 730.00 kg
Länge 0.30 m
Durchmesser 4.10 m
Spannweite 29.00 m
Form Box + pan
Hersteller SPXS
Bus-Typ Starlink V2M
Phasenstatus In Orbit
Besitzer/Staat SPXS/US

Große Konstellationen

Loading constellations...